Regional Weather Roundup
Issued by NWS

Home | Current Version | Previous Version | Text Only | Print | Product List | Glossary On
Versions: 1 2 3 4 5 6 7 8 9 10 11 12 13 14 15 16 17 18 19 20 21 22 23 24 25 26 27 28 29 30 31 32 33 34 35 36 37 38 39 40 41 42 43 44 45 46 47 48 49 50
000
ASUS42 KFFC 180703
RWRGA
WEATHER ROUNDUP FOR GEORGIA
NATIONAL WEATHER SERVICE PEACHTREE CITY GA
300 AM EDT SAT APR 18 2015

NOTE: "FAIR" INDICATES FEW OR NO CLOUDS BELOW 12,000 FEET WITH NO
SIGNIFICANT WEATHER AND/OR OBSTRUCTIONS TO VISIBILITY.

* = USE WITH CAUTION. THE STATIONS MARKED WITH AN ASTERISK MAY NOT
REPORT WEATHER SUCH AS PRECIPITATION, FOG, OR THUNDER AND ARE NOT
QUALITY CONTROLLED BY NWS.

THE REMARK "TC" DENOTES TEMPERATURE READING IN DEGREES CELSIUS.

GAZ001>058-180800-
NORTH GEORGIA

CITY           SKY/WX    TMP DP  RH WIND       PRES   REMARKS
ATLANTA        LGT RAIN  63  61  93 E7        29.99F FOG
ATHENS         LGT RAIN  63  62  97 CALM      29.99F FOG
CHAMBLEE       CLOUDY    61  61 100 E5        29.99F FOG
PEACHTREE CITY CLOUDY    63  62  97 NE5       29.98F
ROME           CLOUDY    62  61  96 CALM      30.00F
WEST ATLANTA   LGT RAIN  62  61  96 CALM      29.99F FOG
GAINESVILLE    LGT RAIN  61  61 100 NE6       30.02F FOG
CARTERSVILLE   CLOUDY    62  60  93 CALM      30.00F


CITY           SKY/WX    TMP DP  RH WIND       PRES   REMARKS
DALTON*        CLOUDY    59  59 100 CALM      30.01F FOG
MARIETTA       CLOUDY    62  62 100 NE3       29.99F
BLAIRSVILLE*   HAZE      59  53  80 CALM      30.04S VSB 1/4
$$

GAZ059>098-102>109-180800-
CENTRAL GEORGIA

CITY           SKY/WX    TMP DP  RH WIND       PRES   REMARKS
AUGUSTA-BUSH   LGT RAIN  65  65 100 NW5       29.97S FOG
AUGUSTA-DANIEL LGT RAIN  66  64  93 CALM      29.98F FOG
COLUMBUS       CLOUDY    63  62  97 CALM      29.94F
MACON          CLOUDY    64  63  96 NE3       29.95F
ROBINS AFB     DRIZZLE   65  65 100 SE2       29.94F


CITY           SKY/WX    TMP DP  RH WIND       PRES   REMARKS
LAGRANGE*      CLOUDY    66  65  99 CALM      29.97F FOG
SYLVANIA*      RAIN      66  66 100 CALM      29.99F
MILLEDGEVILLE* CLOUDY    64  64 100 CALM      29.97F
$$

GAZ099>101-110>166-180800-
SOUTH GEORGIA

CITY           SKY/WX    TMP DP  RH WIND       PRES   REMARKS
SAVANNAH       RAIN      68  66  93 E3        29.98F FOG
VALDOSTA       PTCLDY    67  66  97 CALM      29.96S
ALMA           CLOUDY    68  67  96 E3        29.96F FOG
ST SIMONS      CLOUDY    67  66  97 CALM      29.97F
FT STEWART     LGT RAIN  68  66  94 CALM      29.96F
ALBANY         CLOUDY    69  67  93 S3        29.96S FOG
HUNTER AFB     HVY RAIN  68  68 100 E3        29.96F FOG
MOODY AFB      PTCLDY    67  66  95 SE2       29.95S
BRUNSWICK      CLOUDY    66  64  94 CALM      29.98F


CITY           SKY/WX    TMP DP  RH WIND       PRES   REMARKS
BAINBRIDGE*    FOG       68  68 100 CALM      29.94F VSB 1/4
MOULTRIE*      MOCLDY    66 N/A N/A CALM      29.96S FOG
VIDALIA*       RAIN      66  66 100 SE3       29.96F
WAYCROSS*      CLOUDY    72  69  92 CALM      29.97F
DOUGLAS*       LGT RAIN  70  68  94 CALM      29.98S
$$



USA.gov is the U.S. government's official web portal to all federal, state and local government web resources and services.